This is the latest recevied weather packets stored in our database for station/object KC3WWU. If no packets are shown the sender has not sent any weather packets the latest 10 day(s).
| Time | Temp. | Humidity | Pressure | Rain* | Wind** | Luminosity | Snow |
|---|---|---|---|---|---|---|---|
| 1777378459 | 8.33° C | 92% | 1014.2 hPa | 0 mm | - | 34 W/m² | - |
| 1777378154 | 8.33° C | 92% | 1013.9 hPa | 1.27 mm | - | 37 W/m² | - |
| 1777377847 | 8.33° C | 92% | 1014.1 hPa | 1.27 mm | - | 29 W/m² | - |
| 1777377547 | 8.89° C | 91% | 1014.2 hPa | 0 mm | - | 29 W/m² | - |
| 1777377241 | 8.89° C | 91% | 1014.2 hPa | 0 mm | - | 28 W/m² | - |
| 1777376940 | 8.89° C | 89% | 1014.3 hPa | 1.78 mm | - | 24 W/m² | - |
| 1777376636 | 8.89° C | 88% | 1014.3 hPa | 1.78 mm | - | 20 W/m² | - |
| 1777376334 | 9.44° C | 86% | 1014.4 hPa | 0 mm | - | 18 W/m² | - |
| 1777376029 | 9.44° C | 86% | 1014.2 hPa | 0 mm | - | 21 W/m² | - |
| 1777375728 | 9.44° C | 85% | 1014.2 hPa | 0 mm | - | 20 W/m² | - |
| 1777375424 | 9.44° C | 83% | 1014.1 hPa | 0 mm | - | 17 W/m² | - |
| 1777375121 | 9.44° C | 83% | 1014.2 hPa | 0 mm | - | 11 W/m² | - |
| 1777374820 | 9.44° C | 82% | 1014.3 hPa | 0 mm | - | 9 W/m² | - |
| 1777374516 | 10° C | 81% | 1014.4 hPa | 0 mm | - | 8 W/m² | - |
| 1777374214 | 10° C | 80% | 1014.3 hPa | 0 mm | - | 12 W/m² | - |
| 1777373909 | 10° C | 80% | 1014.3 hPa | 0 mm | - | 11 W/m² | - |
| 1777373607 | 9.44° C | 79% | 1014.6 hPa | 0 mm | - | 9 W/m² | - |
| 1777373303 | 9.44° C | 81% | 1014.4 hPa | 0 mm | - | 7 W/m² | - |
| 1777372998 | 10° C | 80% | 1014.5 hPa | 0 mm | - | 6 W/m² | - |
| 1777372694 | 10° C | 80% | 1014.4 hPa | 0 mm | - | 5 W/m² | - |
| 1777372393 | 10° C | 79% | 1014.4 hPa | 0 mm | - | 2 W/m² | - |
| 1777372092 | 9.44° C | 79% | 1014.3 hPa | 0 mm | - | 1 W/m² | - |
| 1777371788 | 10° C | 80% | 1014.3 hPa | 0 mm | - | 1 W/m² | - |
| 1777371484 | 10° C | 80% | 1014.5 hPa | 0 mm | - | 0 W/m² | - |
| 1777371180 | 10° C | 79% | 1014.7 hPa | 0 mm | - | 0 W/m² | - |
* Rain latest hour (hover to see other rain measurements)
** Current wind speed in m/s (hover to see current wind gust speed)